Погода в Орадя

Румыния     47°03′42″N   21°56′53″E
темп.,
°C
ветер,
м/с
пор.,
м/с
влажн.,
%
обл.,
%
осадки,
мм/ч
давл.,
гПа
погр.,
м
12 апреля, пн
пн1200:00+11юв2368100 0.0 102146
03:00+12ююв2263100 0.0 102132
06:00+11ю116599 0.0 102013
09:00+13ююз1266100 0.0 102096
12:00+17ююз355017 0.0 1019844
15:00+19ююз344871 0.0 10181270
18:00+20юз235113 0.0 10161221
21:00+15в116667 0.0 101610
13 апреля, вт
вт1300:00+13вюв227217 0.0 101617
03:00+10сз129192 0.0 101626
06:00+11ссв129799 0.8 101697
09:00+12ю1293100 0.8 1016201
12:00+9зюз3598100 3.6 1017242
15:00+8ссз2296100 7.8 1017274
18:00+6с4596100 2.5 1016320
21:00+4с4596100 4.6 1017319
14 апреля, ср
ср1400:00+3ссз3396100 1.2 1016346
03:00+2сз3399100 1.8 1016395
06:00+2зсз3599100 1.4 1016358
09:00+2зсз47100100 3.0 1017430
12:00+1сз59100100 2.1 1018429
15:00+2сз410100100 4.4 1018525
18:00+2ссз51299100 2.0 1018691
21:00+1ссз51199100 3.2 1020846
15 апреля, чт
чт1500:00+1сз31099100 0.8 1019623
03:00+2зюз2598100 0.9 1019337
06:00+1з3799100 0.3 1019394
09:00+2з36100100 1.6 1019322
12:00+3з3698100 1.3 1019468
15:00+4з3594100 2.3 1019653
18:00+5зсз1291100 0.9 1019560
21:00+3ююв2397100 1.4 1019117
16 апреля, пт
пт1600:00+3св2399100 0.8 1019344
03:00+2вюв1299100 0.9 1018261
06:00+3ю239899 0.0 1018191
09:00+2ююз5690100 0.0 1018320
12:00+5юз5685100 0.0 1018776
15:00+6ююз4682100 0.1 1018805
18:00+6ю4681100 0.0 1018317
21:00+4юв1392100 0.1 1019100